Weather reports worldwide

Advertisment
Strathallan, United Kingdom (3144): temperature & dewpoint: 20.09.2018 10:00:00 - 26.09.2018 10:00:00 (BST)Strathallan, United Kingdom (3144): temperature -20cm & temperature -100cm: 20.09.2018 10:00:00 - 26.09.2018 10:00:00 (BST)Strathallan, United Kingdom (3144): wind speed & gusts: 20.09.2018 10:00:00 - 26.09.2018 10:00:00 (BST)Strathallan, United Kingdom (3144): wind direction: 20.09.2018 10:00:00 - 26.09.2018 10:00:00 (BST)Strathallan, United Kingdom (3144): reduced air pressure: 20.09.2018 10:00:00 - 26.09.2018 10:00:00 (BST)Strathallan, United Kingdom (3144): visibility: 20.09.2018 10:00:00 - 26.09.2018 10:00:00 (BST)Strathallan, United Kingdom (3144): precipitation: 20.09.2018 10:00:00 - 26.09.2018 10:00:00 (BST)
Date & Time tt [°C] td [°C] tt -20cm [°C] tt -100cm [°C] ff [km/h] ff [kn] fx [km/h] fx [kn] dd ppp [hPa] vv [km] rr [mm]
26.09.2018 10:00:00 16,4 15,4 11,7 13,7 26 14 50 27 SW 1020,2 13 0,0
26.09.2018 09:00:00 16,1 15,3 - - 31 17 54 29 WSW 1019,4 7 0,0
26.09.2018 08:00:00 15,7 15,2 - - 29 16 50 27 SW 1018,7 8 0,2
26.09.2018 07:00:00 15,4 15,0 - - 28 15 54 29 SW 1018,0 3,6 0,4
26.09.2018 06:00:00 14,6 14,0 - - 31 17 54 29 SW 1017,4 5 0,2
26.09.2018 05:00:00 14,2 13,6 - - 31 17 52 28 SW 1017,5 5 0,2
26.09.2018 04:00:00 13,4 12,6 - - 26 14 48 26 WSW 1018,5 4,7 0,4
26.09.2018 03:00:00 13,2 12,3 - - 24 13 - - WSW 1018,9 5 0,4
26.09.2018 02:00:00 13,4 12,0 - - 22 12 - - SW 1019,8 9 0,0
26.09.2018 01:00:00 13,0 12,2 - - 22 12 50 27 SW 1020,8 6 0,2
26.09.2018 00:00:00 12,6 11,8 - - 22 12 - - WSW 1021,3 4,1 0,0
25.09.2018 23:00:00 12,5 11,6 - - 22 12 - - WSW 1021,4 8 0,2
25.09.2018 22:00:00 12,2 11,3 - - 21 11 - - WSW 1021,7 5 0,0
25.09.2018 21:00:00 12,0 11,1 - - 22 12 48 26 SW 1022,4 10 0,2
25.09.2018 20:00:00 11,6 10,7 - - 26 14 57 31 SW 1022,3 4,6 0,0
25.09.2018 19:00:00 11,3 10,2 - - 26 14 46 25 SW 1022,8 4,9 0,2
25.09.2018 18:00:00 11,1 9,7 - - 22 12 - - WSW 1024,0 6 0,0
25.09.2018 17:00:00 11,2 9,3 - - 21 11 - - WSW 1024,9 35 0,0
25.09.2018 16:00:00 10,5 8,6 - - 29 16 52 28 SW 1025,8 9 0,0
25.09.2018 15:00:00 11,8 6,8 - - 24 13 54 29 WSW 1026,9 20 0,0
25.09.2018 14:00:00 12,7 7,5 - - 18 10 50 27 WSW 1027,7 30 0,0
25.09.2018 13:00:00 11,7 6,0 - - 26 14 54 29 SW 1028,2 30 0,0
25.09.2018 12:00:00 11,5 5,5 - - 22 12 48 26 SW 1028,8 35 0,0
25.09.2018 11:00:00 11,9 5,8 - - 31 17 54 29 SW 1030,2 45 0,0
25.09.2018 10:00:00 10,7 6,4 11,2 13,7 16 9 - - SW 1030,9 50 0,0
25.09.2018 09:00:00 9,4 8,4 - - 11 6 - - WSW 1031,5 40 0,0
25.09.2018 08:00:00 6,1 6,0 - - 4 2 - - SW 1031,7 27 0,0
25.09.2018 07:00:00 5,2 4,9 - - 9 5 - - SW 1032,3 30 0,0
25.09.2018 06:00:00 7,0 5,9 - - 9 5 - - SW 1032,7 40 0,0
25.09.2018 05:00:00 8,2 6,9 - - 13 7 - - SW 1033,4 35 0,0
25.09.2018 04:00:00 8,3 7,1 - - 9 5 - - SW 1033,9 50 0,0
25.09.2018 03:00:00 9,1 7,3 - - 21 11 - - SW 1034,5 40 0,0
25.09.2018 02:00:00 9,5 7,3 - - 16 9 - - SW 1034,4 45 0,0
25.09.2018 01:00:00 9,5 7,3 - - 15 8 - - SW 1034,7 50 0,0
25.09.2018 00:00:00 9,7 7,1 - - 15 8 - - SSW 1035,0 50 0,0
24.09.2018 23:00:00 9,8 6,7 - - 16 9 - - SSW 1035,2 50 0,0
24.09.2018 22:00:00 9,9 6,7 - - 16 9 - - SW 1035,0 45 0,0
24.09.2018 21:00:00 10,2 6,6 - - 15 8 - - WSW 1035,1 50 0,0
24.09.2018 20:00:00 10,3 6,2 - - 8 4 - - WSW 1035,2 45 0,0
24.09.2018 19:00:00 11,3 6,6 - - 11 6 - - SW 1035,0 50 0,0
24.09.2018 18:00:00 12,3 5,7 - - 9 5 - - SW 1034,7 50 0,0
24.09.2018 17:00:00 13,3 5,6 - - 16 9 - - WSW 1034,4 50 0,0
24.09.2018 16:00:00 13,5 4,5 - - 24 13 - - WSW 1034,8 50 0,0
24.09.2018 15:00:00 13,6 4,3 - - 16 9 - - W 1034,8 50 0,0
24.09.2018 14:00:00 12,9 3,6 - - 18 10 - - WSW 1035,0 50 0,0
24.09.2018 13:00:00 12,8 4,9 - - 15 8 - - W 1035,3 50 0,0
24.09.2018 12:00:00 12,4 4,6 - - 15 8 - - W 1035,0 45 0,0
24.09.2018 11:00:00 11,5 6,4 - - 13 7 - - SW 1035,0 45 0,0
24.09.2018 10:00:00 9,9 5,3 11,0 13,9 15 8 - - SW 1034,6 45 0,0
24.09.2018 09:00:00 8,0 4,8 - - 8 4 - - SW 1034,1 50 0,0
24.09.2018 08:00:00 5,9 3,3 - - 2 1 - - SSW 1033,6 50 0,0
24.09.2018 07:00:00 6,5 3,5 - - 16 9 - - SW 1033,1 50 0,0
24.09.2018 06:00:00 5,4 3,9 - - 8 4 - - SW 1033,1 50 0,0
24.09.2018 05:00:00 4,1 2,1 - - 4 2 - - SSW 1032,6 45 0,0
24.09.2018 04:00:00 5,8 2,6 - - 11 6 - - SW 1032,4 50 0,0
24.09.2018 03:00:00 3,9 1,6 - - 2 1 - - SE 1032,3 50 0,0
24.09.2018 02:00:00 4,2 0,6 - - 5 3 - - SW 1031,7 45 0,0
24.09.2018 01:00:00 5,6 0,7 - - 9 5 - - WSW 1031,4 50 0,0
24.09.2018 00:00:00 7,8 1,6 - - 13 7 - - SSW 1030,6 50 0,0
23.09.2018 23:00:00 7,2 2,1 - - 5 3 - - SW 1030,0 50 0,0
23.09.2018 22:00:00 7,2 2,4 - - 8 4 - - SW 1029,1 50 0,0
23.09.2018 21:00:00 8,8 3,1 - - 11 6 - - SW 1028,2 50 0,0
23.09.2018 20:00:00 9,1 2,8 - - 5 3 - - S 1027,0 50 0,0
23.09.2018 19:00:00 10,4 3,2 - - 5 3 - - SSW 1025,6 50 0,0
23.09.2018 18:00:00 12,3 3,5 - - 16 9 - - WSW 1024,5 50 0,0
23.09.2018 17:00:00 12,8 3,7 - - 13 7 - - W 1023,3 50 0,0
23.09.2018 16:00:00 14,0 3,9 - - 18 10 - - W 1022,4 50 0,0
23.09.2018 15:00:00 13,8 3,6 - - 11 6 - - WNW 1021,5 40 0,0
23.09.2018 14:00:00 12,6 3,2 - - 15 8 - - W 1021,0 45 0,0
23.09.2018 13:00:00 12,6 4,1 - - 5 3 - - WNW 1020,4 45 0,0
23.09.2018 12:00:00 12,0 3,6 - - 13 7 - - NNW 1019,9 50 0,0
23.09.2018 11:00:00 10,9 5,0 - - 8 4 - - WNW 1019,1 35 0,0
23.09.2018 10:00:00 7,5 6,6 11,0 14,0 2 1 - - NE 1018,7 35 0,0
23.09.2018 09:00:00 3,8 3,8 - - 2 1 - - ENE 1018,2 50 0,2
23.09.2018 08:00:00 -0,4 -0,4 - - 5 3 - - W 1017,6 25 0,0
23.09.2018 07:00:00 -1,2 -1,2 - - 5 3 - - SW 1017,2 27 0,0
23.09.2018 06:00:00 -0,4 -0,4 - - 4 2 - - W 1017,0 24 0,0
23.09.2018 05:00:00 -0,2 -0,2 - - 2 1 - - W 1016,6 40 0,0
23.09.2018 04:00:00 0,7 0,6 - - 2 1 - - SSW 1016,4 40 0,0
23.09.2018 03:00:00 1,1 1,0 - - 4 2 - - NW 1016,5 45 0,0
23.09.2018 02:00:00 1,6 1,4 - - 5 3 - - NW 1016,4 45 0,0
23.09.2018 01:00:00 2,0 1,6 - - 4 2 - - NW 1016,1 40 0,0
23.09.2018 00:00:00 2,9 2,0 - - 0 0 - - N 1016,5 50 0,0
22.09.2018 23:00:00 3,8 2,5 - - 9 5 - - WSW 1015,7 50 0,0
22.09.2018 22:00:00 4,7 2,9 - - 9 5 - - WSW 1015,4 50 0,0
22.09.2018 21:00:00 6,4 3,5 - - 9 5 - - SW 1015,0 45 0,0
22.09.2018 20:00:00 7,9 3,4 - - 9 5 - - SW 1014,4 50 0,0
22.09.2018 19:00:00 10,2 3,7 - - 15 8 - - W 1013,8 45 0,0
22.09.2018 18:00:00 12,1 4,3 - - 16 9 - - W 1013,5 40 0,0
22.09.2018 17:00:00 11,7 4,3 - - 16 9 - - WSW 1013,3 45 0,0
22.09.2018 16:00:00 13,3 4,2 - - 24 13 - - W 1013,0 35 0,0
22.09.2018 15:00:00 12,4 4,1 - - 22 12 - - W 1013,2 50 0,0
22.09.2018 14:00:00 13,6 6,0 - - 21 11 - - W 1013,2 35 0,0
22.09.2018 13:00:00 12,4 3,5 - - 18 10 46 25 WSW 1012,7 40 0,0
22.09.2018 12:00:00 12,2 3,4 - - 28 15 - - WSW 1012,3 45 0,0
22.09.2018 11:00:00 11,1 3,6 - - 24 13 - - WSW 1012,0 50 0,0
22.09.2018 10:00:00 10,0 5,5 11,7 14,0 21 11 - - SW 1011,4 30 0,0
22.09.2018 09:00:00 9,2 3,6 - - 31 17 48 26 WSW 1010,7 40 0,0
22.09.2018 08:00:00 8,6 3,7 - - 24 13 48 26 WSW 1010,2 45 0,0
22.09.2018 07:00:00 8,1 4,1 - - 22 12 - - WSW 1009,9 50 0,0
22.09.2018 06:00:00 8,7 4,3 - - 22 12 - - SW 1009,6 50 0,0
22.09.2018 05:00:00 8,6 5,1 - - 22 12 - - WSW 1009,7 50 0,0
22.09.2018 04:00:00 8,5 4,7 - - 22 12 - - SW 1009,5 50 0,0
22.09.2018 03:00:00 8,4 4,7 - - 21 11 - - WSW 1009,3 45 0,0
22.09.2018 02:00:00 8,5 5,0 - - 22 12 - - WSW 1008,7 50 0,0
22.09.2018 01:00:00 8,5 4,9 - - 22 12 - - WSW 1008,6 22 0,0
22.09.2018 00:00:00 7,5 4,5 - - 18 10 - - SW 1008,1 50 0,0
21.09.2018 23:00:00 7,8 5,6 - - 16 9 - - SW 1007,7 50 0,0
21.09.2018 22:00:00 8,1 6,1 - - 18 10 - - WSW 1007,1 50 0,2
21.09.2018 21:00:00 8,8 5,0 - - 13 7 - - SW 1006,6 50 0,0
21.09.2018 20:00:00 9,8 3,5 - - 24 13 - - WSW 1005,7 50 0,0
21.09.2018 19:00:00 10,8 3,7 - - 24 13 - - WSW 1004,8 45 0,0
21.09.2018 18:00:00 12,5 3,6 - - 22 12 - - W 1003,8 45 0,0
21.09.2018 17:00:00 13,4 5,7 - - 22 12 - - W 1002,8 50 0,0
21.09.2018 16:00:00 13,9 5,6 - - 22 12 - - W 1001,5 45 0,0
21.09.2018 15:00:00 12,4 5,3 - - 11 6 - - WNW 1000,5 50 0,0
21.09.2018 14:00:00 10,4 5,4 - - 16 9 - - NW 999,1 50 0,2
21.09.2018 13:00:00 12,4 5,2 - - 21 11 - - W 997,1 50 0,0
21.09.2018 12:00:00 12,0 4,5 - - 26 14 - - W 995,7 50 0,0
21.09.2018 11:00:00 10,9 7,4 - - 18 10 - - SW 994,7 45 0,0
21.09.2018 10:00:00 9,3 6,1 12,2 14,2 22 12 - - SW 993,8 50 0,0
21.09.2018 09:00:00 8,0 5,2 - - 15 8 - - SW 993,5 50 0,0
21.09.2018 08:00:00 7,8 4,7 - - 15 8 - - SW 992,7 50 0,0
21.09.2018 07:00:00 7,6 4,8 - - 16 9 - - SW 992,3 50 0,0
21.09.2018 06:00:00 7,5 4,7 - - 15 8 - - SW 992,2 50 0,0
21.09.2018 05:00:00 7,3 4,5 - - 13 7 - - SW 992,4 50 0,0
21.09.2018 04:00:00 7,6 4,2 - - 11 6 - - W 992,9 50 0,0
21.09.2018 03:00:00 7,8 4,0 - - 13 7 - - W 992,9 50 0,0
21.09.2018 02:00:00 8,4 3,8 - - 16 9 - - WNW 993,1 24 0,4
21.09.2018 01:00:00 7,1 5,9 - - 8 4 - - SW 994,3 50 0,0
21.09.2018 00:00:00 7,6 6,5 - - 5 3 - - W 994,8 45 0,4
20.09.2018 23:00:00 8,9 7,7 - - 5 3 - - WNW 996,3 14 0,0
20.09.2018 22:00:00 9,1 8,1 - - 4 2 - - ENE 996,9 23 0,0
20.09.2018 21:00:00 9,2 8,4 - - 4 2 - - ESE 998,0 35 0,0
20.09.2018 20:00:00 9,5 8,3 - - 5 3 - - SW 999,3 35 0,0
20.09.2018 19:00:00 10,7 8,0 - - 4 2 - - ENE 999,5 50 0,0
20.09.2018 18:00:00 11,7 7,2 - - 2 1 - - SSE 1000,3 29 0,0
20.09.2018 17:00:00 11,6 7,0 - - 4 2 - - WSW 1001,4 35 0,0
20.09.2018 16:00:00 11,5 6,8 - - 22 12 - - W 1001,8 45 0,0
20.09.2018 15:00:00 12,8 6,8 - - 24 13 - - SW 1001,8 35 0,0
20.09.2018 14:00:00 13,5 8,1 - - 21 11 55 30 WSW 1002,2 30 0,0
20.09.2018 13:00:00 11,4 6,7 - - 22 12 52 28 WSW 1002,9 35 0,0
20.09.2018 12:00:00 10,1 7,4 - - 29 16 55 30 W 1003,1 14 0,2
20.09.2018 11:00:00 11,6 8,1 - - 24 13 46 25 SW 1003,1 40 0,0
20.09.2018 10:00:00 9,8 7,9 12,5 14,2 22 12 - - WSW 1003,2 40 0,2

tt = temperature
td = dewpoint
tt -20cm = temperature -20cm
tt -100cm = temperature -100cm
ff = wind speed
fx = gusts
dd = wind direction
ppp = reduced air pressure
vv = visibility
rr = precipitation

Next stations